Regional Weather Roundup
Issued by NWS

Home | Current Version | Previous Version | Text Only | Print | Product List | Glossary On
Versions: 1 2 3 4 5 6 7 8 9 10 11 12 13 14 15 16 17 18 19 20 21 22 23 24 25 26 27 28 29 30 31 32 33 34 35 36 37 38 39 40 41 42 43 44 45 46 47 48 49 50
000
ASUS43 KDTX 220510
RWRMI
MICHIGAN HOURLY REGIONAL WEATHER ROUNDUP
NATIONAL WEATHER SERVICE DETROIT/PONTIAC MI
ISSUED BY NATIONAL WEATHER SERVICE GRAND RAPIDS MI
1200 AM EST WED FEB 22 2017

NOTE: "FAIR" INDICATES FEW OR NO CLOUDS BELOW 12,000 FEET WITH NO
SIGNIFICANT WEATHER AND/OR OBSTRUCTION TO VISIBILITY.

MIZ047>049-052>055-059>063-066>070-074>076-081>083-220600-
SOUTHEAST LOWER MICHIGAN

CITY           SKY/WX    TMP DP  RH WIND       PRES   REMARKS
ADRIAN         MOCLDY    48  48 100 CALM      29.92F
ALMA           DRZL/FOG  45  44  98 SW5       29.90S VSB<1/4
ANN ARBOR      PTCLDY    42  42 100 SE5       29.91S FOG
BAD AXE        FOG       35  35 100 CALM      29.91R VSB<1/4
DETROIT CITY   PTCLDY    47  46  97 CALM      29.91S FOG
DETROIT        MOCLDY    47  46  97 S5        29.92S
FLINT          FOG       39  39 100 CALM      29.90F VSB 1/4
GROSSE ILE     CLOUDY    38  37  98 S5        29.91R FOG     WCI  34
HILLSDALE      MOCLDY    46  45  93 S5        29.90F FOG
HOWELL         FOG       45  43  95 CALM      29.90F VSB<1/4

CITY           SKY/WX    TMP DP  RH WIND       PRES   REMARKS
JACKSON        PTCLDY    45  43  93 W3        29.90F FOG
LANSING        FOG       47  45  93 SE3       29.90F VSB 1/4
MASON          FOG       44  44 100 CALM      29.90F VSB<1/4
MONROE         PTCLDY    47  47 100 CALM      29.90F FOG
MT. CLEMENS    CLOUDY    39  39 100 NE3       29.90S
PONTIAC        PTCLDY    40  38  93 CALM      29.89F FOG
PORT HOPE        N/A     33  33 100 CALM      29.89R
PORT HURON     CLOUDY    36  36 100 CALM      29.92R FOG
TRI CITIES     FOG       45  45 100 SW7       29.90F VSB<1/4
YPSILANTI      PTCLDY    44  43  96 S7        29.92S FOG
$$
MIZ043>046-050>051-056>058-064>065-071>073-077>080-220600-
SOUTHWEST LOWER MICHIGAN

CITY           SKY/WX    TMP DP  RH WIND       PRES   REMARKS
BATTLE CREEK   PTCLDY    48  48 100 S5        29.90F
BENTON HARBOR  CLOUDY    47  46  97 SE6       29.87F FOG
BIG RAPIDS     FOG       39  38  96 S3        29.87S VSB 1/4
COLDWATER      PTCLDY    48  48 100 CALM      29.90F FOG
HOLLAND        FOG       50  49  96 CALM      29.88F VSB 1/4
GRAND RAPIDS   FOG       51  50  96 S5        29.88F VSB 1/4
KALAMAZOO      PTCLDY    50  47  89 S3        29.89F FOG
MARSHALL       FOG       45  45  98 CALM      29.89F VSB 1/2
MOUNT PLEASANT FOG       37  37  97 CALM      29.89R VSB 1/4
MUSKEGON       FOG       47  47 100 E3        29.88F VSB 1/4
STURGIS        PTCLDY    48  47  98 CALM      29.89F FOG
$$
MIZ016>042-220600-
NORTHERN LOWER MICHIGAN

CITY           SKY/WX    TMP DP  RH WIND       PRES   REMARKS
ALPENA         CLOUDY    33  33 100 S3        29.85F
BEAVER ISLAND  MOCLDY    46  33  59 S7        29.79F
BELLAIRE       CLOUDY    39  37  92 S7        29.81F WCI  34
CADILLAC       PTCLDY    44  42  91 W5        29.84S
CHARLEVOIX     CLOUDY    49  37  62 S6        29.82F
GAYLORD        CLOUDY    44  35  70 S8        29.82F
HOUGHTON LAKE  PTCLDY    45  43  93 S9        29.86F
MANISTEE       MOCLDY    44  40  85 SE6       29.83S
OSCODA         FOG       37  36  96 SW7       29.88F VSB 1/4 WCI  32
PELLSTON       CLOUDY    32  30  92 CALM      29.82F
TRAVERSE CITY  CLOUDY    50  41  71 S6        29.79F
LUDINGTON      PTCLDY    47  43  86 S6        29.83F
$$
MIZ007>008-015-220600-
EASTERN UPPER MICHIGAN

CITY           SKY/WX    TMP DP  RH WIND       PRES   REMARKS
KINROSS        MOCLDY    34  34 100 SE9       29.81F WCI  27
MACKINAC ISLAN CLOUDY    41  37  83 SE9       29.81S
NEWBERRY       CLOUDY    38  37  97 S9        29.78S WCI  32
S. S. MARIE    FOG       35  34  96 E3        29.81F VSB 1/4
$$
MIZ004>006-011>014-085-220600-
CENTRAL UPPER MICHIGAN

CITY           SKY/WX    TMP DP  RH WIND       PRES   REMARKS
MANISTIQUE     CLOUDY    38  37  97 S9        29.78S WCI  32
ESCANABA       CLOUDY    40  35  83 S5        29.76F
MENOMINEE      CLOUDY    48  37  65 SW8       29.77F
SAWYER-GWINN   CLOUDY    44  34  69 S10       29.72F
$$
MIZ001>003-009>011-084-220600-
WESTERN UPPER MICHIGAN

CITY           SKY/WX    TMP DP  RH WIND       PRES   REMARKS
IRON MOUNTAIN  CLOUDY    44  33  65 SE3       29.72F
HOUGHTON       CLOUDY    38  31  76 CALM      29.66F
COPPER HARBOR    N/A     39  32  76 SW12      29.66F WCI  32
IRONWOOD       CLOUDY    49  37  63 SW9       29.67S
$$

ABBREVIATIONS USED IN REMARKS
   TC - TEMPERATURE IN CELSIUS
  WCI - WIND CHILL INDEX
   HX - HEAT INDEX
  VSB - VISIBILITY




USA.gov is the U.S. government's official web portal to all federal, state and local government web resources and services.